User: anonymous   Login
Location: Glencliff
(36.1226°N, 86.7183°W)
Time: 07:45:19
(UTC+00:00)
Language:

ARIANE 5 R/B - Orbit

View from above orbital plane
View from above orbital plane
View from above satellite
View from above satellite

Ground track
Ground track

The orbit data is extracted from the following two-line orbital elements,

1 27387U 02009B   19325.79455866 -.00000013 +00000-0 +10656-4 0  9995
2 27387 098.5797 275.0747 0032890 022.0914 338.1681 14.35984596928885
Epoch (UTC): 21 November 2019 19:04:09
Eccentricity: 0.0032890
inclination: 98.5797°
perigee height: 748 km
apogee height: 795 km
right ascension of ascending node: 275.0747°
argument of perigee: 22.0914°
revolutions per day: 14.35984596
mean anomaly at epoch: 338.1681°
orbit number at epoch: 92888

The dashed part of the orbit path shows where the satellite is in the earth's shadow,  

DLR